Location: Unspecified
(49.2170°N, 0.0000°E)
Time: 20:36:07
(UTC+00:00)

Transit 4A - Pass Details

Date: 16 June 2019
Orbit: 862 x 982 km, 66.8° (Epoch: 18 July)

Event Time Altitude Azimuth Distance (km) Brightness Sun altitude
Rises 18:49:16 0° 320° (NW) 3,695 12.3 10.0°
Reaches altitude 10° 18:51:59 10° 314° (NW) 2,737 12.1 9.6°
Maximum altitude 18:57:55 41° 247° (WSW) 1,362 9.4 8.8°
Drops below altitude 10° 19:03:43 10° 178° (S) 2,668 10.1 7.9°
Sets 19:06:21 0° 172° (S) 3,592 10.6 7.5°
